Andesborg — PCLC — position and weather

sailwx.info

Track history (hours):
 
Tides and Currents Weather Stations Pressure Air Temp Water Temp Dewpoint Dewpoint Depression Visibility Wind Speed Wind Dir Waves Ship Positions

Andesborg

Last reported at 2015-Feb-03 01:26 UTC. Time now 2015-Mar-05 12:00 UTC.
Position N 08°05' W 014°28'.
Warning: this ship's position is 30 days out of date.

Length 142 m; draft 9 m.

Type: Ship. MMSI: 246797000.

Date/timePositionNaut miles runAvg speedWind from/ knotsBaromVisibWave heightAir tempDewpointWater temp
2015-Feb-03 01:26N 08°05' W 014°28'1213.2
2015-Feb-03 00:33N 08°13' W 014°37'1313.0
2015-Feb-02 23:34N 08°22' W 014°46'1313.0
2015-Feb-02 22:33N 08°30' W 014°56'1513.0
2015-Feb-02 21:22N 08°40' W 015°08'1113.1
2015-Feb-02 20:33N 08°47' W 015°16'1313.0
2015-Feb-02 19:33N 08°57' W 015°24'1313.3
2015-Feb-02 18:33N 09°07' W 015°34'1313.0
2015-Feb-02 17:32N 09°16' W 015°44'1812.8
2015-Feb-02 16:10N 09°28' W 015°57'812.8
2015-Feb-02 15:33N 09°33' W 016°03'1712.7
2015-Feb-02 14:16N 09°44' W 016°15'2212.9
2015-Feb-02 12:34N 09°59' W 016°32'1312.8
2015-Feb-02 11:34N 10°08' W 016°40'  
2015-Jan-24 22:33N 50°22' W 000°48'1611.0
2015-Jan-24 21:04N 50°27' W 000°24'2113.4
2015-Jan-24 19:29N 50°32' E 000°08'1314.4
2015-Jan-24 18:34N 50°36' E 000°28'1413.8
2015-Jan-24 17:33N 50°43' E 000°47'1813.8
2015-Jan-24 16:16N 50°54' E 001°09'912.3
2015-Jan-24 15:33N 50°60' E 001°19'1111.3
2015-Jan-24 14:33N 51°07' E 001°33'1211.8
2015-Jan-24 13:33N 51°15' E 001°48'5 4.7
2015-Jan-24 12:33N 51°19' E 001°52'0 0.1
2015-Jan-24 11:33N 51°19' E 001°52'0 0.0
2015-Jan-24 10:32N 51°19' E 001°52'1 1.3
2015-Jan-24 09:34N 51°20' E 001°52'9 9.2
2015-Jan-24 08:34N 51°23' E 002°06'1211.0
2015-Jan-24 07:30N 51°22' E 002°24'1111.4
2015-Jan-24 06:33N 51°23' E 002°42'8 8.1
2015-Jan-24 05:33N 51°25' E 002°54'1212.0
2015-Jan-24 04:34N 51°25' E 003°13'1211.5
2015-Jan-24 03:33N 51°25' E 003°32'7 7.3
2015-Jan-24 02:34N 51°23' E 003°43'9 8.8
2015-Jan-24 01:33N 51°24' E 003°57'  
Track history (hours):
 
Tides and Currents Weather Stations Pressure Air Temp Water Temp Dewpoint Dewpoint Depression Visibility Wind Speed Wind Dir Waves Ship Positions

Andesborg

Last reported at 2015-Feb-03 01:26 UTC. Time now 2015-Mar-05 12:00 UTC.
Position N 08°05' W 014°28'.
Warning: this ship's position is 30 days out of date.

Length 142 m; draft 9 m.

Type: Ship. MMSI: 246797000.

Date/timePositionNaut miles runAvg speedWind from/ knotsBaromVisibWave heightAir tempDewpointWater temp
2015-Feb-03 01:26N 08°05' W 014°28'1213.2
2015-Feb-03 00:33N 08°13' W 014°37'1313.0
2015-Feb-02 23:34N 08°22' W 014°46'1313.0
2015-Feb-02 22:33N 08°30' W 014°56'1513.0
2015-Feb-02 21:22N 08°40' W 015°08'1113.1
2015-Feb-02 20:33N 08°47' W 015°16'1313.0
2015-Feb-02 19:33N 08°57' W 015°24'1313.3
2015-Feb-02 18:33N 09°07' W 015°34'1313.0
2015-Feb-02 17:32N 09°16' W 015°44'1812.8
2015-Feb-02 16:10N 09°28' W 015°57'812.8
2015-Feb-02 15:33N 09°33' W 016°03'1712.7
2015-Feb-02 14:16N 09°44' W 016°15'2212.9
2015-Feb-02 12:34N 09°59' W 016°32'1312.8
2015-Feb-02 11:34N 10°08' W 016°40'  
2015-Jan-24 22:33N 50°22' W 000°48'1611.0
2015-Jan-24 21:04N 50°27' W 000°24'2113.4
2015-Jan-24 19:29N 50°32' E 000°08'1314.4
2015-Jan-24 18:34N 50°36' E 000°28'1413.8
2015-Jan-24 17:33N 50°43' E 000°47'1813.8
2015-Jan-24 16:16N 50°54' E 001°09'912.3
2015-Jan-24 15:33N 50°60' E 001°19'1111.3
2015-Jan-24 14:33N 51°07' E 001°33'1211.8
2015-Jan-24 13:33N 51°15' E 001°48'5 4.7
2015-Jan-24 12:33N 51°19' E 001°52'0 0.1
2015-Jan-24 11:33N 51°19' E 001°52'0 0.0
2015-Jan-24 10:32N 51°19' E 001°52'1 1.3
2015-Jan-24 09:34N 51°20' E 001°52'9 9.2
2015-Jan-24 08:34N 51°23' E 002°06'1211.0
2015-Jan-24 07:30N 51°22' E 002°24'1111.4
2015-Jan-24 06:33N 51°23' E 002°42'8 8.1
2015-Jan-24 05:33N 51°25' E 002°54'1212.0
2015-Jan-24 04:34N 51°25' E 003°13'1211.5
2015-Jan-24 03:33N 51°25' E 003°32'7 7.3
2015-Jan-24 02:34N 51°23' E 003°43'9 8.8
2015-Jan-24 01:33N 51°24' E 003°57'  

Dump ship's entire track history